Вернуться в каталог

STARLINK-36104

АктивенСвязьVLEO
NORAD 66964·PAYLOAD·🇺🇸 United States

Запущен Dec 8, 2025 с Cape Canaveral Space Force Station

Loading…

Ближайшие Пролёты (ближайшие 24 часа)

TLE

СвежийSource: CelesTrak SupGP

Эпоха: Sep 15, 2026, 03:39 UTC

1 66964C 25288F   26258.15256944 -.00004527  00000+0 -16392-3 0  2586
2 66964  43.0043  33.7830 0001816 267.6537 308.6328 15.27587302    14

Отслеживайте STARLINK-36104 в реальном времени с AllMySat

Download on the App Store